Regional Weather Roundup
Issued by NWS Newport/Morehead, NC

Current Version | Previous Version | Graphics & Text | Print | Product List | Glossary Off
Versions: 1 2 3 4 5 6 7 8 9 10 11 12 13 14 15 16 17 18 19 20 21 22 23 24 25 26 27 28 29 30 31 32 33 34 35 36 37 38 39 40 41 42 43 44 45 46 47 48 49 50
000 ASUS42 KMHX 190225 RWRMHX WEATHER ROUNDUP FOR EASTERN NORTH CAROLINA NATIONAL WEATHER SERVICE NEWPORT/MOREHEAD CITY NC 900 PM EST SAT FEB 18 2017 NOTE: "FAIR" INDICATES FEW OR NO CLOUDS BELOW 12,000 FEET WITH NO SIGNIFICANT WEATHER AND/OR OBSTRUCTIONS TO VISIBILITY NCZ015>017-031-032-045>047-102-103-190300- NORTH COAST CITY SKY/WX TMP DP RH WIND PRES REMARKS EDENTON CLOUDY 61 44 53 S7 29.88S ELIZABETH CITY CLOUDY 60 44 55 S10 29.87R KITTY HAWK NOT AVBL MANTEO CLOUDY 55 45 69 SW9 29.89S $$ NCZ045>047-081-094-103-104-190300- CENTRAL COAST CITY SKY/WX TMP DP RH WIND PRES REMARKS FRISCO CLOUDY 62 51 67 SW15G21 29.93R HAZE $$ NCZ095-097-098-100-101-190300- SOUTHERN COAST CITY SKY/WX TMP DP RH WIND PRES REMARKS BEAUFORT CLOUDY 59 51 75 SW9 29.94S CEDAR ISLAND NOT AVBL JACKSONVILLE CLOUDY 60 44 55 SW6 29.93S PINEY ISLAND MOCLDY N/A N/A N/A SW9 29.92R WILMINGTON CLOUDY 59 46 62 SW3 29.94S $$ NCZ011>013-027>030-043-044-078>080-089-090>093-098-190300- COASTAL PLAIN CITY SKY/WX TMP DP RH WIND PRES REMARKS AHOSKIE N/A 62 37 39 SW3 29.86S CLINTON CLOUDY 61 42 49 S3 29.93R ELIZABETHTOWN CLOUDY 61 39 44 S3 29.93S GOLDSBORO CLOUDY 64 37 36 SW9G17 29.88S GREENVILLE CLOUDY 64 36 34 SW8 29.92R HAVELOCK CLOUDY 59 45 59 SW8 29.93S KENANSVILLE NOT AVBL KINSTON MOCLDY 63 37 39 SW7 29.91S NEW BERN CLOUDY 59 43 55 SW7 29.93R RICHLANDS CLOUDY 59 43 55 S6 29.93S ROCKY MOUNT MOCLDY 63 38 39 SW10 29.89R WASHINGTON CLOUDY 63 37 38 SW7 29.90S WHITEVILLE CLOUDY 59 42 53 SW3 29.94S $$ AMZ130-135-150-152-154-156-158-170-250-252-270-ANZ085-086-088-633-658-670-190300- MARINE OBSERVATIONS STATION/POSITION TIME TEMP WIND PRES WAVE SWELL AIR SEA DIR/SP/G HT/PER HT/PER (UTC) (F) (DEG/KT/KT) (MB) (FT/S) (FT/S) CHESAPEAKE LIGHT NOT AVBL 64 E VA BEACH 0150 54 51 220/ 16/ 19 1010.6 4/ 5 DUCK 0200 59 47 200/ 15/ 20 1010.8 2 E DUCK 0200 48 N/A 1/ 9 OREGON INLET 0200 55 51 210/ 14/ 16 1012.1 13E OREGON INLT NOT AVBL HATTERAS CG 0200 61 56 230/ 12/ 18 1013.1 DIAMOND BUOY 0150 68 67 230/ 21/ 25 1012.9 6/ 6 2/10 CAPE LOOKOUT 0200 60 220/ 11/ 14 1013.5 BEAUFORT LAB 0200 58 52 230/ 5/ 8 1012.8 30 SE NEW RVR IN 0208 65 240/ 12/ 16 1014.2 30 SE NEW RVR IN 0143 65 N/A 3/ 4 27 SE WRIGHTSVLE 0208 62 61 210/ 8/ 12 1013.2 5 SE WRIGHTSVLE 0208 57 55 210/ 6/ 10 1013.9 225 S CAPE HAT 0150 70 71 200/ 17/ 21 1017.3 5/ 6 2/ 9 41 SE CHARLESTON 0150 69 69 190/ 12/ 14 1014.3 2/ 5 2/ 9 $$

USA.gov is the U.S. government's official web portal to all federal, state and local government web resources and services.